Change the Weather History Date:

Tuesday, April 30, 2013

  Actual Average Record
Temperature  
Mean Temperature 62 °F -  
Max Temperature 84 °F 69 °F 86 °F (1992)
Min Temperature 39 °F 36 °F 24 °F (2014)
Degree Days  
Heating Degree Days 4    
Growing Degree Days 12 (Base 50)    
Moisture  
Dew Point 13 °F    
Average Humidity 15    
Maximum Humidity 39    
Minimum Humidity 4    
Precipitation  
Precipitation 0.00 in - - ()
Sea Level Pressure  
Sea Level Pressure 29.67 in    
Wind  
Wind Speed 9 mph (West)    
Max Wind Speed 26 mph    
Max Gust Speed 45 mph    
Visibility 10 miles    
Events      
Averages and records for this station are not official NWS values.
T = Trace of Precipitation, MM = Missing Value Source: NWS Daily Summary

Daily Weather History Graph

Daily Weather History Graph

Search for Another Location

Airport or City:

Trip Planner

Search our weather history database for the weather conditions in past years. The results will help you decide how hot, cold, wet, or windy it might be!

Date:

Astronomy

Apr. 30, 2013 Rise Set
Actual Time 6:19 AM MDT 8:00 PM MDT
Civil Twilight 5:52 AM MDT 8:28 PM MDT
Nautical Twilight 5:18 AM MDT 9:02 PM MDT
Astronomical Twilight 4:43 AM MDT 9:37 PM MDT
Moon 12:24 AM MDT (4/30) 10:53 AM MDT (4/30)
Length of Visible Light 14h 36m
Length of Day
13h 41m
Waning Gibbous, 69% of the Moon is Illuminated
Apr 30
Waning Gibbous
May 2
Last Quarter
May 9
New
May 17
First Quarter
May 24
Full

Hourly Weather History & Observations

Time (MDT) Temp. Windchill Dew Point Humidity Pressure Visibility Wind Dir Wind Speed Gust Speed Precip Events Conditions
12:53 AM 50.0 °F - 14.0 °F 24% 29.67 in 10.0 mi NE 5.8 mph - N/A   Clear
1:53 AM 50.0 °F - 14.0 °F 24% 29.67 in 10.0 mi Calm Calm - N/A   Clear
2:53 AM 46.9 °F - 15.1 °F 28% 29.67 in 10.0 mi NE 3.5 mph - N/A   Clear
3:53 AM 44.1 °F 40.8 °F 16.0 °F 32% 29.68 in 10.0 mi NE 5.8 mph - N/A   Clear
4:53 AM 43.0 °F 39.5 °F 16.0 °F 34% 29.69 in 10.0 mi NE 5.8 mph - N/A   Clear
5:53 AM 39.0 °F 35.7 °F 16.0 °F 39% 29.72 in 10.0 mi NE 4.6 mph - N/A   Clear
6:53 AM 42.1 °F - 17.1 °F 37% 29.73 in 10.0 mi Calm Calm - N/A   Clear
7:53 AM 52.0 °F - 19.9 °F 28% 29.73 in 10.0 mi East 6.9 mph - N/A   Clear
8:53 AM 59.0 °F - 21.0 °F 23% 29.74 in 10.0 mi East 6.9 mph - N/A   Clear
9:53 AM 66.0 °F - 23.0 °F 20% 29.73 in 10.0 mi SE 3.5 mph - N/A   Clear
10:53 AM 75.9 °F - 16.0 °F 10% 29.72 in 10.0 mi West 12.7 mph 20.7 mph N/A   Clear
11:53 AM 80.1 °F - 15.1 °F 9% 29.68 in 10.0 mi WNW 13.8 mph 26.5 mph N/A   Clear
12:53 PM 82.0 °F - 10.9 °F 7% 29.67 in 10.0 mi WSW 23.0 mph 36.8 mph N/A   Clear
1:53 PM 82.0 °F - 10.9 °F 7% 29.64 in 8.0 mi WSW 17.3 mph 34.5 mph N/A   Widespread Dust
2:03 PM 82.4 °F - 8.6 °F 6% 29.79 in 8.0 mi West 20.7 mph 34.5 mph N/A   Widespread Dust
2:21 PM 80.6 °F - 8.6 °F 6% 29.79 in 10.0 mi WSW 25.3 mph 33.4 mph N/A   Widespread Dust
2:53 PM 84.0 °F - 7.0 °F 5% 29.63 in 10.0 mi WSW 23.0 mph 33.4 mph N/A   Widespread Dust
3:53 PM 82.9 °F - 8.1 °F 6% 29.61 in 10.0 mi WSW 26.5 mph 36.8 mph N/A   Widespread Dust
4:53 PM 81.0 °F - 8.1 °F 6% 29.60 in 8.0 mi West 25.3 mph 44.9 mph N/A   Widespread Dust
5:53 PM 80.1 °F - 9.0 °F 7% 29.61 in 10.0 mi West 17.3 mph - N/A   Widespread Dust
6:53 PM 79.0 °F - 6.1 °F 6% 29.60 in 10.0 mi West 15.0 mph 23.0 mph N/A   Clear
7:53 PM 75.0 °F - 5.0 °F 7% 29.59 in 10.0 mi West 17.3 mph 27.6 mph N/A   Clear
8:53 PM 69.1 °F - 8.1 °F 9% 29.61 in 10.0 mi SW 11.5 mph - N/A   Clear
9:53 PM 68.0 °F - 9.0 °F 10% 29.62 in 10.0 mi WSW 12.7 mph - N/A   Clear
10:53 PM 64.9 °F - 12.0 °F 13% 29.62 in 10.0 mi WSW 11.5 mph - N/A   Clear
11:53 PM 63.0 °F - 12.0 °F 14% 29.63 in 10.0 mi WSW 10.4 mph - N/A   Clear